EW9853 Weather Reports


time (UTC)temp
C
wind
direction
speed
KPH
gust
KPH
rain 1hr
cm
rain 24hr
cm
rain mn
cm
humidity
%
barometer
mb
20260504041600 13 197 4.8 12.9 0.00 0.28 0.28 69 1004.5
20260504040117 13 225 4.8 11.3 0.00 0.28 0.28 69 1004.5
20260504034610 13 231 1.6 9.7 0.00 0.28 0.28 68 1004.7
20260504033058 13 191 3.2 11.3 0.00 0.28 0.28 67 1004.9
20260504031558 13 229 3.2 8.0 0.00 0.28 0.28 66 1005.0
20260504030057 13 189 0.0 6.4 0.00 0.28 0.28 64 1005.1
20260504024600 14 243 3.2 8.0 0.00 0.28 0.28 63 1005.0
20260504023056 15 191 3.2 9.7 0.00 0.28 0.28 61 1005.0
20260504021555 15 205 3.2 11.3 0.00 0.28 0.28 59 1004.9
20260504020055 16 200 3.2 11.3 0.00 0.28 0.28 58 1004.8
20260504014554 16 221 4.8 14.5 0.00 0.28 0.28 56 1004.6
20260504013106 16 219 4.8 14.5 0.00 0.28 0.28 55 1004.5
20260504011553 16 236 4.8 14.5 0.00 0.28 0.28 54 1004.5
20260504010101 17 226 3.2 14.5 0.00 0.28 0.28 52 1004.4
20260504004605 18 235 4.8 14.5 0.00 0.28 0.28 50 1004.3
20260504003049 18 222 8.0 19.3 0.00 0.28 0.28 48 1004.4
20260504001549 19 253 8.0 19.3 0.00 0.28 0.28 46 1004.5
20260504000048 19 219 6.4 22.5 0.00 0.28 0.28 45 1004.5
20260503234548 20 231 4.8 29.0 0.00 0.28 0.28 44 1004.6
20260503233048 20 227 8.0 22.5 0.00 0.28 0.28 43 1004.6
20260503231548 20 220 9.7 25.7 0.00 0.28 0.28 42 1004.6
20260503230053 20 175 8.0 27.4 0.00 0.28 0.28 42 1004.6
20260503224543 20 235 11.3 25.7 0.00 0.28 0.28 41 1004.8
20260503223042 20 179 11.3 25.7 0.00 0.28 0.28 41 1005.0
20260503221540 20 269 12.9 33.8 0.00 0.28 0.28 40 1005.2
20260503220039 20 222 6.4 25.7 0.00 0.28 0.28 41 1005.1
20260503214536 20 263 8.0 25.7 0.00 0.28 0.28 41 1005.2
20260503213033 19 180 9.7 22.5 0.00 0.28 0.28 42 1005.5
20260503211531 19 165 8.0 29.0 0.00 0.28 0.28 43 1005.8
20260503210028 18 286 9.7 25.7 0.00 0.28 0.28 44 1006.1
20260503204524 17 257 16.1 30.6 0.00 0.28 0.28 43 1006.5
20260503203023 17 234 14.5 30.6 0.00 0.28 0.28 42 1006.9
20260503201519 18 252 19.3 33.8 0.00 0.28 0.28 39 1006.9
20260503200016 18 230 11.3 33.8 0.00 0.28 0.28 41 1007.1
20260503194514 17 179 20.9 40.2 0.00 0.28 0.28 40 1007.3
20260503193013 17 231 17.7 35.4 0.00 0.28 0.28 45 1007.5
20260503191525 16 224 12.9 43.5 0.00 0.28 0.28 48 1007.8
20260503190006 16 198 12.9 37.0 0.00 0.28 0.28 53 1008.0
20260503184605 15 164 12.9 30.6 0.00 0.28 0.28 60 1008.2
20260503183056 13 146 12.9 27.4 0.00 0.28 0.28 64 1008.6
20260503181551 12 136 12.9 24.1 0.03 0.28 0.28 68 1008.9
20260503180100 11 263 9.7 17.7 0.03 0.28 0.28 76 1009.4
20260503174546 10 214 4.8 17.7 0.05 0.28 0.28 83 1009.8
20260503173049 8 225 6.4 16.1 0.05 0.28 0.28 83 1010.2
20260503171537 8 163 6.4 17.7 0.05 0.25 0.25 83 1011.2
20260503081531 5 240 1.6 6.4 0.00 0.03 0.00 66 1014.1
20260503071527 6 217 1.6 8.0 0.00 0.03 0.00 65 1014.2
20260503054513 6 238 1.6 9.7 0.00 0.03 0.00 59 1015.0
20260503053011 6 182 1.6 6.4 0.00 0.03 0.00 58 1015.1
20260503051511 7 217 1.6 6.4 0.00 0.03 0.00 57 1015.2
20260503050008 7 199 1.6 6.4 0.00 0.03 0.00 57 1015.3
20260503044506 7 200 3.2 9.7 0.00 0.03 0.03 56 1015.3
20260503043020 7 175 3.2 8.0 0.00 0.03 0.03 56 1015.3